ALOS (DAICHI)

Last updated on Sun Jun 21 2026 00:02:15 GMT+0000 (Coordinated Universal Time)

1 28931U 06002A 26171.42573416 .00000762 00000+0 13518-3 0 9995 2 28931 98.1324 126.9830 0001325 56.4754 303.6579 14.70055733 88579
UTC large
Height (km)
Speed (km/s)
/
Latitude / Longitude
Inclination (degrees)
Orbital Period (minutes)
Azimuth
Elevation
Range (km)
Doppler Factor

Next 0 passes for location: London (51.5072 / 0.1276)

No passes found over London.
ALOS (DAICHI)